Location: Cisewo
(53.3833°N, 14.9000°E)
Time: 12:51:51
(UTC+00:00)

Cosmos 1295 Rocket - Pass Details

Date: 18 April 2021
Orbit: 945 x 993 km, 82.9° (Epoch: 16 May)

Event Time Altitude Azimuth Distance (km) Brightness Sun altitude
Rises 23:32:00 0° 349° (NNW) 3,669 8.7 -25.1°
Reaches altitude 10° 23:34:30 10° 350° (N) 2,725 7.8 -25.0°
Maximum altitude 23:40:47 87° 80° (E) 988 4.4 -24.8°
Enters shadow 23:42:22 54° 166° (SSE) 1,182 4.5 -24.8°
